Regional Weather Roundup
Issued by NWS

Home | Current Version | Previous Version | Graphics & Text | Print | Product List | Glossary On
Versions: 1 2 3 4 5 6 7 8 9 10 11 12 13 14 15 16 17 18 19 20 21 22 23 24 25 26 27 28 29 30 31 32 33 34 35 36 37 38 39 40 41 42 43 44 45 46 47 48 49 50
000
ASUS45 KBOU 092110
RWRCO

WEATHER ROUNDUP FOR COLORADO
NATIONAL WEATHER SERVICE DENVER/BOULDER CO
300 PM MDT WED JUL 09 2014

NOTE: "FAIR" INDICATES FEW OR NO CLOUDS BELOW 12000 FEET WITH NO
SIGNIFICANT WEATHER AND/OR OBSTRUCTIONS TO VISIBILITY.

COZ001>005-013-030-031-092200-
...NORTHWEST COLORADO...

CITY           SKY/WX    TMP DP  RH WIND       PRES   REMARKS
CRAIG          MOSUNNY   85  39  19 VRB3      30.11F
HAYDEN         MOSUNNY   88  39  18 SW8       30.14F
MEEKER         PTSUNNY   82  51  34 SW8       30.16F
MOUNT WERNER   MOSUNNY   68  30  24 NW12G20   30.52F
STEAMBOAT SPGS MOSUNNY   85  43  22 NE8       30.17F
WALDEN         MOSUNNY   77  36  22 NW7       30.28R
$$

COZ006>008-011-092200-
...WEST CENTRAL VALLEYS...

CITY           SKY/WX    TMP DP  RH WIND       PRES   REMARKS
GRAND JUNCTION MOSUNNY   92  48  22 W13       30.03F
MONTROSE       PTSUNNY   90  43  19 W12       30.12F
EAGLE          PTSUNNY   81  43  26 NW9       30.19S
RIFLE          PTSUNNY   91  39  16 NW10      30.06F
DELTA          PTSUNNY   91  44  19 S7        30.07F
NUCLA          PTSUNNY   88  41  19 N8        30.17S
$$

COZ017>023-064>068-092200-
...SOUTHWEST COLORADO...

CITY           SKY/WX    TMP DP  RH WIND       PRES   REMARKS
DURANGO        MOSUNNY   82  44  26 NW8       30.21F
CORTEZ         SUNNY     88  48  25 VRB7      30.14F
PAGOSA SPRINGS CLOUDY    75  38  26 E8G17     30.30R
TELLURIDE      LGT RAIN  57  46  67 S15G35    30.43R
WOLF CREEK PAS NOT AVBL
$$

COZ009-010-012-014-032>034-037-058>063-092200-
...CENTRAL COLORADO...

CITY           SKY/WX    TMP DP  RH WIND       PRES   REMARKS
ASPEN          PTSUNNY   83  35  18 VRB6      30.25F
BUENA VISTA    CLOUDY    76  35  22 SE17G23   30.30S
COPPER MTN     PTSUNNY   64  19  17 W6G25     30.64R
BERTHOUD PASS  FAIR      55  41  58 MISG      30.68S
COTTONWOOD PAS PTSUNNY   72  27  18 CALM      30.47R
GUNNISON       NOT AVBL
KREMMLING      MOSUNNY   86  30  13 S10       30.22F
LEADVILLE      CLOUDY    65  30  27 W10G21    30.43F
MONARCH PASS   CLOUDY    52  34  50 E18G26    30.72F
SALIDA         PTSUNNY  N/A N/A N/A W13G18    30.34R
SUNLIGHT       MOSUNNY   72  41  33 NW3       30.54F
WILKERSON PASS PTSUNNY   64  32  29 SE8       30.59F
$$

COZ069>075-092200-
...SAN LUIS VALLEY/SANGRE DE CRISTO MOUNTAINS...

CITY           SKY/WX    TMP DP  RH WIND       PRES   REMARKS
ALAMOSA        MOSUNNY   80  42  25 MISG      30.26F
LA VETA PASS   TSTM      55  46  71 NE5       30.50S
SAGUACHE       NOT AVBL
$$

COZ035-036-038>040-092200-
...NORTHERN COLORADO FRONT RANGE...

CITY           SKY/WX    TMP DP  RH WIND       PRES   REMARKS
DENVER INTL AP PTSUNNY   93  41  16 SE12G21   30.04F
DMNS CITY PARK   N/A     92  41  17 N10       30.03R
AURORA         PTSUNNY   89  44  20 E7        30.06F
FRONT RANGE AP NOT AVBL
ERIE MUNI ARPT PTSUNNY   82  59  45 NW10G16   30.04R
BOULDER MUN AP PTSUNNY   81  59  47 N6        30.06S
CENTENNIAL     PTSUNNY   91  33  12 N7        30.07F
BROOMFIELD     PTSUNNY   86  59  39 NW17      30.08F
FORT COLLINS   PTSUNNY   82  57  42 CALM      30.04R
LONGMONT         N/A     82  63  51 W8        30.06
$$

COZ041-046-047-076>085-087-088-092200-
...PIKES PEAK/PALMER DIVIDE AND SOUTHERN FOOTHILLS...

CITY           SKY/WX    TMP DP  RH WIND       PRES   REMARKS
COLO. SPRINGS  PTSUNNY   81  45  28 SW10      30.17R
A. F. ACADEMY  MOSUNNY   80  41  24 W18       30.17S
ELLICOTT       NOT AVBL
FALCON         PTSUNNY   82  43  24 SW17G24   30.21R
FORT CARSON    CLOUDY    78  43  28 W14       30.14R
LIMON          MOSUNNY   90  41  18 S15G23    30.07F
MONUMENT HILL  MOSUNNY   84  34  16 SW15G21   30.19S
TRINIDAD       MOSUNNY   90  36  14 E8        30.11F
$$

COZ042>045-048>051-090-091-092200-
...NORTHEAST COLORADO...

CITY           SKY/WX    TMP DP  RH WIND       PRES   REMARKS
GREELEY ARPT   PTSUNNY   88  57  35 CALM      30.02F
AKRON          SUNNY     89  52  28 S22G30    30.02F
BURLINGTON     PTSUNNY   87  57  35 SE17G26   30.03F
WRAY           SUNNY     94  51  22 SE15G26   29.97F
STERLING       SUNNY     95  59  30 S13       29.95F
HOLYOKE        SUNNY     91  61  35 S13G22    29.97F
FORT MORGAN    SUNNY     91  50  24 SE14      30.00F
$$

COZ086-089-092>099-092200-
...SOUTHEAST COLORADO...

CITY           SKY/WX    TMP DP  RH WIND       PRES   REMARKS
PUEBLO         PTSUNNY   89  51  27 SE8       30.02F
LA JUNTA       MOSUNNY   95  43  16 S8G20     29.99F
LAMAR          SUNNY     97  51  21 S15G24    29.96F
SPRINGFIELD      N/A     95  49  20 S21       30.03F
$$


USA.gov is the U.S. government's official web portal to all federal, state and local government web resources and services.